"Time","Temp","Dewpoint","Humidity","Pressure","Direction","Speed","Gust","Precip","PrecipRate"
"00:04:59","32.9","26.7","77.8","30.06","265","0","0","0.00","0.00"
"00:09:57","32.8","26.9","78.7","30.06","265","0","0","0.00","0.00"
"00:14:57","32.7","26.8","78.9","30.06","265","0","0","0.00","0.00"
"00:19:59","32.6","27.4","81.1","30.06","265","0","0","0.00","0.00"
"00:24:55","32.5","27.6","82","30.06","265","0","0","0.00","0.00"
"00:29:56","32.5","27.5","81.7","30.07","265","0","0","0.00","0.00"
"00:34:56","32.5","27.3","81","30.07","265","0","0","0.00","0.00"
"00:39:59","32.5","26.7","79.1","30.07","265","0","0","0.00","0.00"
"00:44:59","32.6","26.7","78.7","30.07","265","0","0","0.00","0.00"
"00:49:56","32.6","26.8","79","30.05","265","0","0","0.00","0.00"
"00:54:56","32.7","26.8","78.7","30.05","265","0","0","0.00","0.00"
"00:59:57","32.8","26.7","78.2","30.05","265","0","0","0.00","0.00"
"01:04:57","32.8","27.3","80","30.04","265","0","0","0.00","0.00"
"01:09:56","32.7","27.2","80","30.04","265","0","0","0.00","0.00"
"01:14:58","32.6","27.2","80.1","30.04","265","0","0","0.00","0.00"
"01:19:58","32.6","27.4","81","30.02","265","0","0","0.00","0.00"
"01:24:59","32.5","27.4","81.3","30.02","265","0","0","0.00","0.00"
"01:29:56","32.4","27.5","82","30.03","265","0","0","0.00","0.00"
"01:34:58","32.5","27.6","82","30.03","265","0","0","0.00","0.00"
"01:39:59","32.4","27.3","81.5","30.03","265","0","0","0.00","0.00"
"01:44:59","32.3","27","80.7","30.03","265","0","0","0.00","0.00"
"01:49:59","32.2","27.1","81.1","30.02","265","0","0","0.00","0.00"
"01:54:56","32.2","27","81","30.02","265","0","0","0.00","0.00"
"01:59:56","32.1","26.7","80.4","30.02","265","0.3","2.3","0.00","0.00"
"02:04:56","32.1","27.2","81.7","30.02","265","0.3","2.3","0.00","0.00"
"02:09:59","32.2","27.6","83","30.02","265","0.7","2.3","0.00","0.00"
"02:14:56","32.2","27.2","81.6","30.02","265","0.8","2.3","0.00","0.00"
"02:19:57","32.3","27.1","81","30.02","261","0.2","3","0.00","0.00"
"02:24:58","32.4","27.4","81.5","30.02","152","2.2","3.5","0.00","0.00"
"02:29:58","32.7","27.3","80.4","30.02","144","1.3","3.5","0.00","0.00"
"02:34:58","33","27.3","79.6","30.01","144","0.7","2.3","0.00","0.00"
"02:39:56","33.2","27.7","80","30.01","144","1","2.3","0.00","0.00"
"02:44:56","33.3","28","80.5","30.01","144","0.7","3.5","0.00","0.00"
"02:49:57","33.3","28","80.7","30.00","144","0.7","2.3","0.00","0.00"
"02:54:57","33.3","28.1","80.9","30.00","144","0.7","2.3","0.00","0.00"
"02:59:57","33.2","27.8","80.4","30.00","144","0.5","2.3","0.00","0.00"
"03:04:57","33.1","27.9","81","30.00","144","0.1","1.2","0.00","0.00"
"03:09:56","33.1","28","81.2","30.00","144","0","0","0.00","0.00"
"03:14:57","33.2","28.3","82","30.01","144","0","0","0.00","0.00"
"03:19:57","33.2","28.6","83","30.01","144","0","0","0.00","0.00"
"03:24:57","33.3","28.6","82.8","30.01","144","0.7","2.3","0.00","0.00"
"03:29:57","33.5","28.3","81.2","30.01","144","0.2","2.3","0.00","0.00"
"03:34:57","33.8","28","79.1","30.01","144","0.3","2.3","0.00","0.00"
"03:39:58","34.3","28.4","78.9","30.01","144","0.1","2","0.00","0.00"
"03:44:57","34.8","28.4","77.2","30.01","146","1.1","3.5","0.00","0.00"
"03:49:59","35.4","28.9","77","30.01","154","0.9","3.5","0.00","0.00"
"03:54:59","35.9","29.7","78","30.01","167","0.9","3.5","0.00","0.00"
"03:59:58","36.4","30.6","79.5","30.01","173","0.7","3.5","0.00","0.00"
"04:04:58","36.6","31","80.1","30.00","173","0.7","3.5","0.01","0.00"
"04:09:57","36.8","31.5","81","30.00","173","0.5","5","0.01","0.01"
"04:14:56","37","32.1","82.2","30.00","178","1.8","4.6","0.01","0.01"
"04:19:56","37.1","32.6","83.7","30.00","181","1.2","3.5","0.02","0.02"
"04:24:58","37.1","32.8","84.5","30.00","179","1.5","3.5","0.02","0.02"
"04:29:57","37","33","85.3","30.00","194","0.9","3.5","0.03","0.03"
"04:34:59","37","33.2","86","29.99","200","0.8","3.5","0.03","0.03"
"04:39:59","36.9","33.3","86.7","29.99","200","0.2","2.3","0.04","0.03"
"04:44:57","36.8","33.5","87.8","29.99","200","0.4","2.3","0.04","0.04"
"04:49:56","36.6","33.6","88.5","29.98","200","0.5","2.3","0.04","0.04"
"04:54:58","36.5","33.6","89","29.98","201","1","2.3","0.05","0.05"
"04:59:56","36.2","33.5","89.7","29.98","202","0.6","2.3","0.05","0.05"
"05:04:56","36.1","33.5","90","29.98","202","0","0","0.05","0.05"
"05:09:59","36","33.5","90.7","29.98","202","0","1.2","0.05","0.04"
"05:14:59","36","33.6","91","29.98","202","1.1","2.3","0.06","0.05"
"05:19:57","35.8","33.4","91","29.98","212","1.1","2.3","0.06","0.05"
"05:24:59","35.7","33.6","91.9","29.98","242","0.8","2.3","0.06","0.04"
"05:29:58","35.7","33.6","92","29.98","315","1.6","6","0.07","0.05"
"05:34:56","35.6","33.5","92","29.97","348","2.3","4.6","0.07","0.04"
"05:39:59","35.4","33.1","91.3","29.97","333","2.9","5","0.07","0.04"
"05:44:57","35","32.6","91","29.97","343","1.4","5","0.08","0.03"
"05:49:59","34.7","32.3","91","29.97","349","1.7","4","0.08","0.04"
"05:54:58","34.3","31.9","91","29.97","348","0.6","2","0.08","0.04"
"05:59:56","34","31.6","91","29.97","348","0.1","1.2","0.08","0.03"
"06:04:56","33.8","31.5","91","29.97","348","0","0","0.08","0.03"
"06:09:55","33.6","31.3","91.3","29.97","348","0","1.2","0.08","0.03"
"06:14:59","33.4","31.3","92","29.97","348","0","1.2","0.08","0.03"
"06:19:57","33.3","31.2","92","29.97","348","0","1","0.08","0.02"
"06:24:56","33.1","31","92","29.97","348","0.2","1.2","0.08","0.02"
"06:29:58","33","30.9","92","29.97","348","0.1","1.2","0.08","0.02"
"06:34:56","32.9","30.9","92.4","29.97","348","0","1.2","0.08","0.01"
"06:39:55","32.8","31","93","29.97","348","0.1","1.2","0.08","0.01"
"06:44:58","32.7","30.9","93","29.97","348","0","1.2","0.08","0.01"
"06:49:57","32.6","30.8","93","29.95","348","0.1","1.2","0.08","0.00"
"06:54:56","32.6","30.8","93","29.95","347","0.4","2.3","0.08","0.00"
"06:59:59","32.6","31.1","93.9","29.97","347","0.2","1.2","0.08","0.00"
"07:04:59","32.6","31.1","94","29.97","348","0","0","0.08","0.00"
"07:09:57","32.6","31.1","94","29.97","348","0","0","0.08","0.00"
"07:14:58","32.5","31","94","29.98","347","0","0","0.08","0.00"
"07:19:57","32.5","31","94","29.98","348","0","0","0.08","0.00"
"07:24:57","32.5","31","94","29.98","347","0","0","0.08","0.00"
"07:29:57","32.5","31","94","29.98","348","0","0","0.08","0.00"
"07:34:59","32.5","31","94","29.98","348","0","0","0.08","0.00"
"07:39:59","32.5","31","94","29.98","347","0","0","0.08","0.00"
"07:44:58","32.5","31","94","29.98","347","0","0","0.08","0.00"
"07:49:56","32.5","31","94","29.97","347","0","0","0.08","0.00"
"07:54:58","32.5","31","94","29.97","347","0","0","0.08","0.00"
"07:59:58","32.5","31.1","94.5","29.97","347","0","0","0.08","0.00"
"08:04:58","32.5","31.2","95","29.97","347","0","0","0.08","0.00"
"08:09:56","32.6","31.3","95","29.97","347","0","0","0.08","0.00"
"08:14:59","32.6","31.3","95","29.97","347","0","0","0.08","0.00"
"08:19:57","32.6","31.3","95","29.97","347","0","0","0.08","0.00"
"08:24:59","32.7","31.4","95","29.97","347","0","0","0.08","0.00"
"08:29:57","32.7","31.4","95","29.97","347","0","0","0.08","0.00"
"08:34:59","32.7","31.4","95","29.95","347","0","0","0.08","0.00"
"08:39:58","32.7","31.4","95","29.95","347","0","0","0.08","0.00"
"08:44:56","32.8","31.5","95","29.95","347","0","1","0.08","0.00"
"08:49:58","32.8","31.5","95","29.95","347","0","0","0.08","0.00"
"08:54:56","32.9","31.6","95","29.95","347","0","0","0.08","0.00"
"08:59:58","32.9","31.6","95","29.97","347","0","0","0.08","0.00"
"09:04:57","32.9","31.6","95","29.97","347","0","1.2","0.08","0.00"
"09:09:56","33","31.7","95","29.97","347","0.7","2.3","0.08","0.00"
"09:14:59","33.1","31.8","95","29.97","347","1","3.5","0.08","0.00"
"09:19:57","33.1","31.8","95","29.97","348","1.1","3.5","0.08","0.00"
"09:24:59","33.2","31.9","95","29.97","347","0.9","4","0.08","0.00"
"09:29:57","33.1","31.8","95","29.97","346","0.7","3.5","0.08","0.00"
"09:34:59","33.1","31.8","95","29.95","346","1.2","3","0.09","0.01"
"09:39:58","33","31.7","95","29.95","343","1","3.5","0.09","0.01"
"09:44:56","33.1","31.7","94.8","29.96","328","1.6","4","0.09","0.01"
"09:49:58","33","31.5","94.1","29.96","321","0.7","3.5","0.09","0.01"
"09:54:56","33","31.5","94.2","29.96","321","0.7","2.3","0.09","0.01"
"09:59:57","33","31.7","95","29.96","321","1","2.3","0.09","0.01"
"10:04:56","33","31.7","95","29.96","339","1.3","3.5","0.09","0.01"
"10:09:59","33","31.7","95","29.96","353","1.3","4","0.09","0.01"
"10:14:57","33.1","31.8","95","29.96","355","0.3","2.3","0.09","0.01"
"10:19:59","33","31.7","95","29.96","355","0.9","3.5","0.09","0.01"
"10:24:57","33","31.7","95","29.96","355","0.5","2.3","0.09","0.01"
"10:29:59","33","31.7","95","29.96","355","0.3","1.2","0.09","0.01"
"10:34:57","33","31.7","95","29.96","355","0.6","2.3","0.09","0.01"
"10:39:59","33","31.7","95","29.96","355","0.1","1.2","0.09","0.00"
"10:44:57","33","31.7","95","29.96","355","0","0","0.09","0.00"
"10:49:58","33.1","31.8","95","29.95","355","1.1","3","0.09","0.00"
"10:54:56","33","31.7","95","29.95","355","1.3","2.3","0.10","0.01"
"10:59:58","33.1","31.8","95","29.95","355","1.1","2.3","0.10","0.01"
"11:04:58","33.2","31.9","95","29.95","355","0.8","2.3","0.10","0.01"
"11:09:56","33.3","32","95","29.95","350","1.6","3.5","0.10","0.01"
"11:14:57","33.4","32.1","95","29.95","332","1.6","3.5","0.10","0.01"
"11:19:59","33.4","32.1","95","29.95","333","1.7","3.5","0.10","0.01"
"11:24:57","33.5","32.2","95","29.95","329","2.1","4","0.11","0.02"
"11:29:56","33.6","32.3","95","29.95","341","2.3","5","0.11","0.02"
"11:34:58","33.7","32.4","95","29.95","319","2.3","5","0.12","0.03"
"11:39:57","33.8","32.5","95","29.95","318","2.2","4","0.13","0.04"
"11:44:59","33.7","32.4","95","29.95","319","2.3","4","0.14","0.04"
"11:49:57","33.7","32.4","95","29.95","325","3.4","6","0.15","0.05"
"11:54:59","33.8","32.5","95","29.95","329","3.6","9","0.15","0.06"
"11:59:57","33.8","32.5","95","29.95","331","4.4","9.2","0.16","0.06"
"12:04:57","33.9","32.6","95","29.95","341","2.9","7","0.17","0.07"
"12:09:59","34.2","32.9","95","29.95","340","3.2","10.4","0.18","0.08"
"12:14:59","34.4","33","94.6","29.95","324","3.8","9.2","0.19","0.09"
"12:19:56","34.5","33","94","29.94","327","3.4","8","0.20","0.10"
"12:24:59","34.7","33.2","94","29.94","326","3.9","8.1","0.21","0.11"
"12:29:57","35.2","33.6","94","29.94","333","4.7","8","0.23","0.12"
"12:34:56","35.7","34.1","94","29.93","333","4.2","9.2","0.24","0.12"
"12:39:59","36.1","34.5","93.8","29.93","299","3.2","6.9","0.26","0.13"
"12:44:58","36.6","34.9","93.5","29.93","337","3.1","5","0.27","0.14"
"12:49:56","37","35.2","93","29.92","321","3.1","7","0.29","0.15"
"12:54:59","37.5","35.2","91.5","29.92","315","4.1","12","0.30","0.15"
"12:59:58","37.6","34.8","89.7","29.92","330","4.9","10.4","0.31","0.16"
"13:04:57","37.8","35.3","90.6","29.92","324","3.2","9.2","0.32","0.16"
"13:09:59","38","35","89.2","29.92","333","4.3","9.2","0.33","0.16"
"13:14:56","38.1","35.1","89","29.92","345","4.3","11.5","0.34","0.15"
"13:19:55","38.3","35.2","88.9","29.92","323","2.8","9.2","0.35","0.16"
"13:24:59","38.4","35.2","88","29.92","337","2.6","9","0.36","0.15"
"13:29:59","38.5","35.3","88","29.92","340","2.9","8","0.36","0.15"
"13:34:59","38.5","35.3","88","29.91","328","2.2","5","0.37","0.14"
"13:39:59","38.5","35.1","87.2","29.91","335","2.2","5","0.37","0.13"
"13:44:59","38.6","35.2","87.4","29.91","327","1.8","5","0.37","0.11"
"13:49:59","38.6","35.3","87.5","29.91","345","2.8","7","0.38","0.11"
"13:54:59","38.6","35.1","87","29.91","335","2.4","6","0.38","0.09"
"13:59:58","38.6","35","86.8","29.92","332","2.9","5.8","0.38","0.08"
"14:04:58","38.7","35.3","87.4","29.92","339","1.8","7","0.39","0.07"
"14:09:58","39","35.3","86.3","29.92","326","4","10","0.39","0.07"
"14:14:56","39.3","35.2","84.9","29.92","330","4.4","12","0.39","0.06"
"14:19:56","39.5","35.2","84.4","29.92","339","4.7","12","0.39","0.05"
"14:24:59","39.6","35.3","84.3","29.92","339","3.3","10.4","0.39","0.04"
"14:29:59","39.5","35.3","84.5","29.92","337","2.9","5","0.39","0.03"
"14:34:59","39.6","35.2","83.8","29.92","319","2.6","6","0.39","0.03"
"14:39:59","39.4","35","84","29.92","315","2.8","6","0.39","0.02"
"14:44:59","39","34.7","84.2","29.93","307","3.6","9","0.39","0.02"
"14:49:58","38.8","34.4","84.2","29.93","336","3.8","7","0.39","0.02"
"14:54:58","38.7","34.6","84.9","29.93","337","3.2","9","0.39","0.01"
"14:59:57","38.6","34.2","83.8","29.94","327","4.8","7","0.39","0.01"
"15:04:57","38.5","34.1","84","29.94","337","4.4","9.2","0.39","0.01"
"15:09:56","38.5","34.3","84.5","29.94","336","4.5","9.2","0.39","0.00"
"15:14:57","38.9","34.5","84","29.94","333","2.9","7","0.39","0.00"
"15:19:57","39.4","35.2","84.5","29.94","322","2.8","7","0.39","0.00"
"15:24:57","39.9","35.2","83","29.94","327","2.4","6","0.39","0.00"
"15:29:57","40","35","82.1","29.95","329","4.5","9.2","0.39","0.00"
"15:34:57","40.4","35.3","81.9","29.95","312","3.9","10.4","0.39","0.00"
"15:39:58","41.1","34.8","78.1","29.95","334","6.9","14","0.39","0.00"
"15:44:58","41.7","35.3","77.6","29.95","330","4.2","10","0.39","0.00"
"15:49:57","42.1","34.6","74.6","29.95","319","5","11.5","0.39","0.00"
"15:54:57","41.7","33.6","73","29.95","306","4.6","11.5","0.39","0.00"
"15:59:56","41","32","70.2","29.96","285","8.1","17","0.39","0.00"
"16:04:56","40.3","31.1","69.4","29.96","315","6.7","17.3","0.39","0.00"
"16:09:58","39.9","30.1","67.6","29.96","315","5.7","14","0.39","0.00"
"16:14:59","39.7","28.9","65","29.97","332","7.3","14","0.39","0.00"
"16:19:59","39.8","28.7","64.3","29.97","314","6","13.8","0.39","0.00"
"16:24:59","39.8","28","62.5","29.97","324","8.6","16","0.39","0.00"
"16:29:56","39.6","28.4","63.9","29.98","313","6.5","16.1","0.39","0.00"
"16:34:57","39.6","28.3","63.7","29.98","326","6.1","19","0.39","0.00"
"16:39:59","39.4","27.8","62.9","29.98","315","4.5","11","0.39","0.00"
"16:44:57","39.2","27.6","62.8","29.99","322","5.8","13","0.39","0.00"
"16:49:57","39.1","27.2","61.9","29.99","332","5.1","12","0.39","0.00"
"16:54:57","39","27.6","63.2","29.99","280","2","6.9","0.39","0.00"
"16:59:58","39.1","27.3","62.4","30.00","294","1.2","6","0.39","0.00"
"17:04:58","39","27.1","61.8","30.00","341","4","12","0.39","0.00"
"17:09:57","38.4","26.4","61.6","30.00","320","3.2","10.4","0.39","0.00"
"17:14:58","37.7","25.8","62","30.01","293","3.2","8.1","0.39","0.00"
"17:19:59","37","25.7","63.2","30.01","295","2.6","8.1","0.39","0.00"
"17:24:56","36.5","24.9","62.5","30.01","315","3.2","9.2","0.39","0.00"
"17:29:57","36.2","25","63.5","30.02","306","2.1","5","0.39","0.00"
"17:34:58","35.9","25","64.4","30.02","308","1.4","3.5","0.39","0.00"
"17:39:56","35.5","25.2","65.6","30.02","299","1.9","9.2","0.39","0.00"
"17:44:57","35.2","24.6","65.2","30.04","312","2.2","5","0.39","0.00"
"17:49:58","34.8","24.7","66.1","30.04","270","0.7","2.3","0.39","0.00"
"17:54:59","34.5","24.3","66","30.04","307","1.7","7","0.39","0.00"
"17:59:59","34.2","22.7","62.4","30.05","325","3.9","10.4","0.39","0.00"
"18:04:56","34.1","22.2","61.6","30.05","280","3.1","10.4","0.39","0.00"
"18:09:59","34","22.1","61.5","30.05","306","2.8","6","0.39","0.00"
"18:14:56","33.8","22.3","62.5","30.06","295","2.5","5","0.39","0.00"
"18:19:57","33.6","22","62.2","30.06","235","2","7","0.39","0.00"
"18:24:58","33.4","21.7","61.7","30.06","282","1.6","4.6","0.39","0.00"
"18:29:59","33.2","22.3","63.9","30.08","258","1.8","5","0.39","0.00"
"18:34:56","32.9","22.1","64.4","30.08","253","1","3.5","0.39","0.00"
"18:39:57","32.6","22.1","64.7","30.08","299","1.4","3.5","0.39","0.00"
"18:44:58","32.3","22.2","65.8","30.09","263","1.7","6","0.39","0.00"
"18:49:58","32.1","21.7","65","30.09","245","2.4","5.8","0.39","0.00"
"18:54:59","31.9","21.4","64.9","30.09","223","2.2","4","0.39","0.00"
"18:59:56","31.7","20.4","62.8","30.12","239","2.4","6","0.39","0.00"
"19:04:56","31.7","19.2","59.4","30.12","254","3.9","14","0.39","0.00"
"19:09:59","31.9","18","56.1","30.12","233","3.4","13.8","0.39","0.00"
"19:14:57","31.9","18","56","30.14","236","2.1","4.6","0.39","0.00"
"19:19:58","31.7","17.1","54.3","30.14","249","1.9","4","0.39","0.00"
"19:24:59","31.7","16.6","53.3","30.14","212","1.1","5","0.39","0.00"
"19:29:59","31.6","16.1","52.4","30.14","207","0.9","3.5","0.39","0.00"
"19:34:56","31.4","17.2","55.2","30.14","207","1.2","3.5","0.39","0.00"
"19:39:57","31.1","17.6","56.9","30.14","233","2.6","9","0.39","0.00"
"19:44:58","30.9","16.6","55.1","30.15","253","4","9.2","0.39","0.00"
"19:49:59","31.4","14.8","49.7","30.15","287","3.1","10.4","0.39","0.00"
"19:54:58","31.7","15.6","50.9","30.15","316","4.9","10.4","0.39","0.00"
"19:59:58","31.7","15.8","51.4","30.15","317","4.8","9.2","0.39","0.00"
"20:04:58","31.5","15.9","52","30.15","311","3.7","6","0.39","0.00"
"20:09:57","31.3","15.8","52.3","30.15","316","3.1","6","0.39","0.00"
"20:14:59","31.2","15","50.6","30.16","310","2.3","6","0.39","0.00"
"20:19:56","31.1","15.3","51.5","30.16","339","0.5","2.3","0.39","0.00"
"20:24:56","30.9","15.7","52.7","30.16","271","0.8","2.3","0.39","0.00"
"20:29:56","30.6","15.3","52.5","30.17","272","0.6","3","0.39","0.00"
"20:34:57","30.4","15.5","53.6","30.17","293","1.2","3.5","0.39","0.00"
"20:39:58","30.2","15.8","54.6","30.17","308","2.5","4","0.39","0.00"
"20:44:59","30","16.6","57.2","30.17","328","3.8","6","0.39","0.00"
"20:49:56","29.6","17.4","59.9","30.17","340","4.2","6","0.39","0.00"
"20:54:56","29.3","17.3","60.4","30.17","346","4.4","10.4","0.39","0.00"
"20:59:56","29.2","16.5","58.7","30.17","338","3.9","10.4","0.39","0.00"
"21:04:57","29.2","15.8","57","30.16","323","3","7","0.39","0.00"
"21:09:56","29.3","15.3","55.4","30.16","2","1.8","7","0.39","0.00"
"21:14:57","29.4","14.6","53.6","30.18","112","1.7","4","0.39","0.00"
"21:19:58","29.5","14.6","53.4","30.18","120","1.8","4","0.39","0.00"
"21:24:58","29.5","14.7","53.5","30.18","111","1.7","5","0.39","0.00"
"21:29:58","29.4","15.1","54.9","30.19","111","1.1","2.3","0.39","0.00"
"21:34:59","28.9","16.9","60.3","30.19","113","0.9","2.3","0.39","0.00"
"21:39:57","28.4","18.2","65.3","30.19","116","0.4","2.3","0.39","0.00"
"21:44:58","27.8","17.8","65.5","30.20","201","1.6","4","0.39","0.00"
"21:49:59","27.7","14.8","57.9","30.20","305","1.2","3.5","0.39","0.00"
"21:54:56","28","14.4","56.1","30.20","329","1.5","3.5","0.39","0.00"
"21:59:57","28.3","14.7","56.4","30.21","326","0.2","4","0.39","0.00"
"22:04:58","28.3","14.2","55","30.21","346","0.8","4","0.39","0.00"
"22:09:57","28.2","14.1","55","30.21","346","0","0","0.39","0.00"
"22:14:59","28","14.3","56","30.22","346","0","1.2","0.39","0.00"
"22:19:59","27.7","14.7","57.8","30.22","346","0.1","1.2","0.39","0.00"
"22:24:56","27.4","16.4","63","30.22","346","0.4","1.2","0.39","0.00"
"22:29:57","27","16","62.8","30.22","340","1","3.5","0.39","0.00"
"22:34:59","26.8","16.6","65.1","30.22","339","1.2","3.5","0.39","0.00"
"22:39:57","26.6","15.5","62.5","30.22","339","0","2.3","0.39","0.00"
"22:44:58","26.4","14.3","59.6","30.22","339","0.1","2","0.39","0.00"
"22:49:59","26.3","13.9","58.8","30.22","339","0.5","2.3","0.39","0.00"
"22:54:57","26.2","13.4","57.8","30.22","339","0","1","0.39","0.00"
"22:59:57","26.1","14","59.8","30.22","339","0.3","2.3","0.39","0.00"
"23:04:58","25.9","16.1","66.2","30.22","338","0.2","2","0.39","0.00"
"23:09:58","25.8","15.9","65.7","30.22","338","0.4","3","0.39","0.00"
"23:14:56","25.8","16.2","66.6","30.23","338","1.2","3.5","0.39","0.00"
"23:19:57","25.6","16","66.5","30.23","338","1","2.3","0.39","0.00"
"23:24:59","25.5","15","64.1","30.23","338","1.2","2.3","0.39","0.00"
"23:29:57","25.3","14.7","63.6","30.24","338","0.6","1.2","0.39","0.00"
"23:34:58","25.1","13.9","62.1","30.24","338","0.2","1.2","0.39","0.00"
"23:39:57","24.9","15.3","66.4","30.24","338","1.3","3.5","0.39","0.00"
"23:44:58","24.6","17.2","72.8","30.25","338","1.2","3.5","0.39","0.00"
"23:49:59","24.3","17.1","73.9","30.25","338","0","1.2","0.39","0.00"
"23:54:56","24","16.6","73","30.25","338","0","0","0.39","0.00"
"23:59:57","23.8","15.4","70","30.26","355","0","1","0.39","0.00"
